Simultaneous Nadir Overpasses (SNOs) Predictions

Prediction of SNOs between GOES-17 and AQUA Satellite Orbit:

Table of predicted SNOs for the next 14.0 days since TLE Epoch: 5/6/2023
Index Date Time (GOES-17) GOES-17 Lat,Lon AQUA Lat,Lon Distance(km) Time Diff (sec)
1 05/06/2023 08:55:35 0.00,-104.73 0.38,-106.53 204.59 80
2 05/08/2023 08:38:58 0.00,-104.73 -0.31,-103.12 181.40 80
3 05/08/2023 20:59:54 0.00,-104.72 -0.75,-108.20 396.27 80
4 05/10/2023 20:45:58 0.00,-104.71 -0.01,-104.80 10.23 80
5 05/12/2023 20:34:40 0.00,-104.70 0.71,-101.39 376.38 80
6 05/13/2023 08:55:27 -0.00,-104.71 0.37,-106.43 196.02 80
7 05/15/2023 08:38:48 -0.00,-104.70 -0.34,-103.02 191.37 80
8 05/15/2023 20:59:44 0.00,-104.69 -0.74,-108.09 386.37 80
9 05/17/2023 20:48:25 0.01,-104.69 0.02,-104.68 2.16 80
10 05/19/2023 20:34:25 0.01,-104.69 0.76,-101.27 389.82 80
